Погода в Ломе

Того     6°10′05″N   1°14′36″E
темп.,
°C
ветер,
м/с
пор.,
м/с
влажн.,
%
обл.,
%
осадки,
мм/ч
давл.,
гПа
погр.,
м
12 августа, пт
пт1200:00+24юз4879100 0.0 1013543
03:00+24юз4980100 0.0 1012533
06:00+24зюз398078 0.0 1013533
09:00+27зюз576295 0.0 1014900
12:00+30ююз565199 0.1 10131640
15:00+28ююз6858100 0.2 1011882
18:00+27юз4758100 0.2 1012661
21:00+25юз51171100 0.2 1014580
13 августа, сб
сб1300:00+24юз5127599 0.2 1014696
03:00+24юз51178100 0.0 1013643
06:00+23юз41082100 0.0 1014661
09:00+27зюз576181 0.0 10151261
12:00+30юз575080 0.1 10141630
15:00+30юз575399 0.1 10111524
18:00+26юз687192 0.1 1013706
21:00+24юз51178100 0.3 1015597
14 августа, вс
вс1400:00+24юз51080100 0.3 1015529
03:00+23зюз4983100 0.3 1013538
06:00+23зюз41086100 0.8 1013599
09:00+24зюз51077100 0.2 1014800
12:00+25зюз5874100 0.4 10131002
15:00+24юз5882100 0.6 1011744
18:00+23юз41087100 1.0 1012656
21:00+23юз51188100 0.3 1013612
15 августа, пн
пн1500:00+22юз51190100 1.1 1013723
03:00+22юз51193100 2.9 1011753
06:00+22юз5119186 3.1 1012727
09:00+23юз51085100 0.1 1014770
12:00+23юз41088100 0.3 1013708
15:00+23юз4984100 0.1 1011730
18:00+23юз3984100 0.1 1012696
21:00+23ююз3889100 0.2 1014652
16 августа, вт
вт1600:00+22юз498960 0.2 1013618
03:00+23юз398990 0.1 1012655
06:00+22юз389095 0.1 1014587
09:00+26юз576997 0.0 10151002
12:00+27ююз6763100 0.1 10141131
15:00+28ююз675978 0.1 10121108
18:00+25ююз576723 0.1 1013680
21:00+24ююз48766 0.0 1015518